FO-29
1 24278U 96046B 15021.22087016 -.00000011 00000-0 21843-4 0 5635
2 24278 098.5236 010.0220 0351502 091.9712 335.0575 13.53041483910154
SO-33
1 25509U 98061B 15021.36101034 .00000530 00000-0 89670-4 0 9275
2 25509 031.4358 003.9565 0348855 226.2119 288.3127 14.29804074848393
RS-22
1 27939U 03042A 15022.41515525 .00000875 00000-0 16872-3 0 2403
2 27939 097.8218 190.9608 0013690 127.8179 232.4306 14.65730767604831
HO-68
1 36122U 09072B 15022.16006353 -.00000060 00000-0 -43517-4 0 3228
2 36122 100.2177 072.0445 0007796 094.1919 266.0087 13.16323009245242
AO-73
1 39444U 13066AE 15022.18459665 .00001903 00000-0 25415-3 0 3632
2 39444 097.7493 090.2310 0059645 250.6772 108.7985 14.79491725 61822
EO-79
1 40025U 14033R 15022.31138094 .00002536 00000-0 29330-3 0 6354
2 40025 097.9648 282.3190 0012381 307.6015 052.4000 14.86403173 32124
UO-11
1 14781U 84021B 15021.20932957 .00000643 00000-0 87380-4 0 7218
2 14781 097.8225 081.7782 0008931 181.8273 178.2909 14.82102269660250
AO-16
1 20439U 90005D 15022.09029118 .00000156 00000-0 73586-4 0 2248
2 20439 098.5292 320.5329 0010074 227.5787 199.2662 14.32476324305828
LO-19
1 20442U 90005G 15021.33449428 .00000129 00000-0 63475-4 0 1557
2 20442 098.5004 319.7885 0011228 218.1062 141.9329 14.32672164305918
AO-27
1 22825U 93061C 15021.12537418 .00000129 00000-0 67653-4 0 8710
2 22825 098.6916 331.3482 0008685 027.0645 094.2770 14.29821795111926
IO-26
1 22826U 93061D 15022.17017030 .00000158 00000-0 78217-4 0 6280
2 22826 098.6857 332.5776 0009000 015.9460 344.2004 14.30133297112219
GO-32
1 25397U 98043D 15022.19311278 .00000070 00000-0 49299-4 0 5497
2 25397 098.5016 337.3646 0002041 066.1288 024.9803 14.23509331859028
NO-44
1 26931U 01043C 15021.23480278 .00000131 00000-0 82449-4 0 8032
2 26931 067.0507 196.1337 0006887 268.1392 091.8920 14.30241503694784
SO-50
1 27607U 02058C 15022.49682126 .00001186 00000-0 17075-3 0 6418
2 27607 064.5572 283.5398 0071909 317.3311 042.2718 14.74389835649809
CO-55
1 27844U 03031E 15021.55291214 .00000220 00000-0 12004-3 0 1211
2 27844 098.6977 032.1733 0009640 011.1912 153.8909 14.21690235599603
CO-57
1 27848U 03031J 15021.02326125 .00000145 00000-0 86606-4 0 571
2 27848 098.7072 031.4809 0009670 019.9622 038.3411 14.21352417599441
AO-51
1 28375U 04025K 15021.37639949 .00000290 00000-0 98415-4 0 437
2 28375 098.2783 326.1682 0083781 053.7253 307.1639 14.41557949555344
CP3
1 31129U 07012N 15021.45145066 .00001189 00000-0 26681-3 0 9520
2 31129 097.9629 353.7787 0098396 051.6815 063.5985 14.55367058411771
CO-65
1 32785U 08021C 15021.92903042 .00001395 00000-0 16433-3 0 1725
2 32785 097.6697 070.7776 0013855 183.3914 301.4991 14.86262811364500
PRISM
1 33493U 09002B 15022.35249950 .00004623 00000-0 46335-3 0 6930
2 33493 098.2515 212.7510 0017580 088.1744 272.1478 14.91780429324820
SOHLA-1
1 33496U 09002E 15021.61397172 .00000445 00000-0 80561-4 0 5679
2 33496 098.1919 148.4611 0005134 265.1267 161.4492 14.71152374321627
TISAT-1
1 36799U 10035E 15022.22071917 .00002994 00000-0 33707-3 0 8628
2 36799 098.0145 121.0633 0012386 329.8213 085.0090 14.87380010245259
STUDSAT
1 36801U 10035G 15021.90362454 .00013792 00000-0 97713-3 0 9890
2 36801 098.0520 134.1700 0006197 274.0242 200.5131 15.04917514245914
ALMASAT-1
1 38078U 12006B 15022.21201151 .00031054 00000-0 59261-3 0 2776
2 38078 069.4561 245.2239 0524552 098.1383 267.9587 14.66461444153543
XATCOBEO
1 38082U 12006F 14243.34478676 .13583328 43697-5 37939-3 0 5637
2 38082 069.3815 097.0364 0033293 225.1799 135.4582 16.41261006136239
CUBEBUG-1
1 39153U 13018D 15022.21871583 .00001311 00000-0 18573-3 0 8081
2 39153 098.0261 107.0127 0017298 009.0398 351.1121 14.78649084 93909
ESTCUBE-1
1 39161U 13021C 15022.35883935 .00001333 00000-0 22664-3 0 8667
2 39161 098.0828 106.5540 0010788 062.4501 297.7791 14.70722353 91804
DUCHIFAT-1
1 40021U 14033M 15022.40769493 .00003248 00000-0 36895-3 0 6404
2 40021 097.9659 282.5525 0013051 306.9841 053.0169 14.86938442 32136
NANOSATCBR1
1 40024U 14033Q 15022.29604911 .00003097 00000-0 35449-3 0 6278
2 40024 097.9641 282.3422 0012260 307.0011 053.0064 14.86663675 32111
DTUSAT-2
1 40030U 14033W 15022.36620465 .00002458 00000-0 28726-3 0 6219
2 40030 097.9641 282.2228 0011441 298.5362 061.4659 14.86010183 32128
ANTELSAT
1 40034U 14033AA 15022.34660376 .00001846 00000-0 29315-3 0 6389
2 40034 097.9604 277.5064 0059804 226.5367 133.0823 14.72138561 31839
MET-2/21
1 22782U 93055A 15021.87372155 .00000074 00000-0 53268-4 0 2813
2 22782 082.5506 359.7723 0022421 015.3205 047.1594 13.83757423 80362
OKEAN-4
1 23317U 94066A 15022.23129808 .00001012 00000-0 11199-3 0 7664
2 23317 082.5361 222.4691 0021656 094.0967 023.6723 14.86235109 95639
NOAA-14
1 23455U 94089A 15022.51603778 .00000080 00000-0 64940-4 0 600
2 23455 098.7621 106.9110 0010469 132.7256 352.9120 14.14017161 34946
NOAA-15
1 25338U 98030A 15022.53612921 .00000123 00000-0 70936-4 0 5003
2 25338 098.7671 021.1313 0009965 226.9294 211.5297 14.25552286868093
RESURS
1 25394U 98043A 15021.89542325 .00000034 00000-0 32712-4 0 8595
2 25394 098.4463 342.4129 0001348 034.3793 026.4203 14.24435934859456
FENGYUN1
1 25730U 99025A 15021.89774625 .00001471 00000-0 81291-3 0 3484
2 25730 098.9323 346.9568 0018441 209.4086 209.7593 14.12912279808392
OKEAN-0
1 25860U 99039A 15020.99488205 .00000696 00000-0 10925-3 0 4721
2 25860 098.0754 349.0018 0001953 095.7616 304.4072 14.75751053834275
NOAA-16
1 26536U 00055A 15022.44594528 .00000037 00000-0 44020-4 0 9975
2 26536 098.9615 088.4397 0009530 284.4172 075.5942 14.13070881739077
NOAA-17
1 27453U 02032A 15022.50849725 .00000057 00000-0 42076-4 0 8936
2 27453 098.3289 015.8172 0010726 247.4560 112.5486 14.24845088653915
NOAA-18
1 28654U 05018A 15022.55252462 .00000048 00000-0 51452-4 0 4123
2 28654 099.1733 011.7357 0014363 013.0265 088.3233 14.12138232498529
NOAA-19
1 33591U 09005A 15022.49332190 .00000303 00000-0 19034-3 0 5437
2 33591 098.9731 332.1681 0013473 217.4758 278.4709 14.11857561306933
HUBBLE
1 20580U 90037B 15022.29479478 .00002544 00000-0 15565-3 0 2054
2 20580 028.4716 035.6591 0003236 110.5756 003.6556 15.06667539157784
ISS
1 25544U 98067A 15022.50287037 .00015268 00000-0 24231-3 0 7627
2 25544 051.6483 091.3892 0005643 287.4381 269.2229 15.53554560925368
CO-58
1 28895U 05043F 15021.24554721 .00000743 00000-0 15524-3 0 9740
2 28895 097.8219 216.7037 0017872 045.5275 314.7386 14.62434368492119
FALCON
1 30776U 07006E 15021.57752280 .00009651 00000-0 42886-3 0 578
2 30776 035.4269 197.8639 0002387 047.4823 004.6760 15.20831888433945
MAST
1 31126U 07012K 15021.88739983 .00000874 00000-0 19872-3 0 2573
2 31126 097.9428 356.7505 0092012 033.0633 026.9012 14.55747288412207
CAPE1
1 31130U 07012P 15021.46062270 .00001115 00000-0 25222-3 0 2621
2 31130 097.9644 353.3000 0099026 053.2903 307.7341 14.55073116411544
COMPASS
1 32787U 08021E 15022.09758362 .00002462 00000-0 26303-3 0 1597
2 32787 097.6718 074.2052 0013788 172.1689 187.9746 14.89616423364759
AAUSAT2
1 32788U 08021F 15022.12065224 .00003353 00000-0 34825-3 0 1464
2 32788 097.6728 075.5062 0013305 169.9620 190.1867 14.90520957364837
DO-64
1 32789U 08021G 15022.22416788 .00007345 00000-0 63897-3 0 1995
2 32789 097.6921 084.4842 0011713 152.6843 243.2536 14.97190903365223
